CW5612 Weather Reports


Display with metric or nautical units.
time (UTC)temp
F
wind
direction
speed
MPH
gust
MPH
rain 1hr
in
rain 24hr
in
rain mn
in
humidity
%
barometer
mb
20260510174704 86 315 0.0 0.0 0.00 0.00 0.00 32 1014.0
20260510174205 86 315 0.0 0.0 0.00 0.00 0.00 32 1013.9
20260510173705 86 315 0.0 0.0 0.00 0.00 0.00 32 1014.0
20260510173204 86 315 0.0 0.0 0.00 0.00 0.00 32 1014.0
20260510172705 86 315 0.0 0.0 0.00 0.00 0.00 32 1013.8
20260510172205 86 315 0.0 0.0 0.00 0.00 0.00 31 1013.9
20260510171205 87 315 0.0 0.0 0.00 0.00 0.00 34 1014.0
20260510170204 86 315 0.0 0.0 0.00 0.00 0.00 34 1014.2
20260510165704 86 315 0.0 0.0 0.00 0.00 0.00 34 1014.4
20260510164705 85 315 0.0 0.0 0.00 0.00 0.00 33 1014.5
20260510164204 85 315 0.0 0.0 0.00 0.00 0.00 34 1014.5
20260510163705 84 315 0.0 0.0 0.00 0.00 0.00 39 1014.6
20260510163206 84 315 0.0 0.0 0.00 0.00 0.00 40 1014.6
20260510162705 83 315 0.0 0.0 0.00 0.00 0.00 36 1014.6
20260510162204 83 316 0.0 0.0 0.00 0.00 0.00 37 1014.6
20260510161204 82 314 0.0 0.0 0.00 0.00 0.00 40 1014.7
20260510160204 80 314 0.0 0.0 0.00 0.00 0.00 47 1014.9
20260510154705 79 314 0.0 0.0 0.00 0.00 0.00 47 1014.9
20260510154206 79 314 0.0 0.0 0.00 0.00 0.00 48 1015.0
20260510153205 79 314 0.0 0.0 0.00 0.00 0.00 51 1015.0
20260510152706 78 314 0.0 0.0 0.00 0.00 0.00 51 1015.2
20260510152204 78 314 0.0 0.0 0.00 0.00 0.00 52 1015.2
20260510151205 76 314 0.0 0.0 0.00 0.00 0.00 53 1015.3
20260510150705 76 314 0.0 0.0 0.00 0.00 0.00 57 1015.2
20260510150204 76 314 0.0 0.0 0.00 0.00 0.00 55 1015.4
20260510145705 75 314 0.0 0.0 0.00 0.00 0.00 58 1015.3
20260510145206 74 314 0.0 0.0 0.00 0.00 0.00 58 1015.2
20260510144705 74 314 0.0 0.0 0.00 0.00 0.00 60 1015.2
20260510144204 73 314 0.0 0.0 0.00 0.00 0.00 63 1015.2
20260510143705 72 314 0.0 0.0 0.00 0.00 0.00 64 1015.1
20260510143205 71 314 0.0 0.0 0.00 0.00 0.00 62 1015.1
20260510142704 70 314 0.0 0.0 0.00 0.00 0.00 68 1015.0
20260510142204 69 314 0.0 0.0 0.00 0.00 0.00 76 1015.0
20260510141706 68 314 0.0 0.0 0.00 0.00 0.00 69 1015.0
20260510141204 67 314 0.0 0.0 0.00 0.00 0.00 73 1015.0
20260510140706 66 314 0.0 0.0 0.00 0.00 0.00 77 1014.9
20260510140205 65 314 0.0 0.0 0.00 0.00 0.00 75 1015.0
20260510135704 65 314 0.0 0.0 0.00 0.00 0.00 80 1014.9
20260510135205 64 314 0.0 1.0 0.00 0.00 0.00 80 1014.9
20260510134704 64 314 0.0 1.0 0.00 0.00 0.00 81 1014.8
20260510134205 63 314 0.0 1.0 0.00 0.00 0.00 82 1014.9
20260510133705 63 314 0.0 1.0 0.00 0.00 0.00 83 1014.9
20260510133206 62 314 0.0 0.0 0.00 0.00 0.00 87 1014.7
20260510132704 62 314 0.0 0.0 0.00 0.00 0.00 89 1014.9
20260510132204 61 314 0.0 0.0 0.00 0.00 0.00 90 1014.9
20260510131705 61 314 0.0 0.0 0.00 0.00 0.00 92 1015.0
20260510131205 60 314 0.0 0.0 0.00 0.00 0.00 92 1014.9
20260510130704 60 314 0.0 0.0 0.00 0.00 0.00 92 1014.9
20260510130206 60 314 0.0 0.0 0.00 0.00 0.00 93 1014.8
20260510125704 60 314 0.0 0.0 0.00 0.00 0.00 93 1014.8
20260510125204 60 315 0.0 0.0 0.00 0.00 0.00 94 1014.7
20260510124704 59 315 0.0 0.0 0.00 0.00 0.00 94 1014.7
20260510124204 59 315 0.0 0.0 0.00 0.00 0.00 93 1014.7
20260510123706 59 315 0.0 0.0 0.00 0.00 0.00 93 1014.7
20260510123204 59 315 0.0 0.0 0.00 0.00 0.00 93 1014.8
20260510122204 58 315 0.0 0.0 0.00 0.00 0.00 93 1014.7
20260510121704 58 315 0.0 0.0 0.00 0.00 0.00 93 1014.5
20260510121204 58 315 0.0 0.0 0.00 0.00 0.00 92 1014.4
20260510120704 58 315 0.0 0.0 0.00 0.00 0.00 92 1014.3
20260510115705 58 315 0.0 0.0 0.00 0.00 0.00 91 1014.2
20260510115206 58 315 0.0 0.0 0.00 0.00 0.00 91 1014.2
20260510114705 57 315 0.0 0.0 0.00 0.00 0.00 91 1014.1
20260510114204 58 315 0.0 0.0 0.00 0.00 0.00 91 1014.1
20260510113204 57 315 0.0 0.0 0.00 0.00 0.00 91 1013.9
20260510112204 57 315 0.0 0.0 0.00 0.00 0.00 90 1013.7
20260510111705 57 315 0.0 0.0 0.00 0.00 0.00 90 1013.6
20260510111204 57 315 0.0 0.0 0.00 0.00 0.00 90 1013.6
20260510110704 58 315 0.0 0.0 0.00 0.00 0.00 90 1013.7
20260510110204 58 315 0.0 0.0 0.00 0.00 0.00 90 1013.6
20260510105704 57 315 0.0 0.0 0.00 0.00 0.00 90 1013.5
20260510105204 57 315 0.0 0.0 0.00 0.00 0.00 90 1013.5
20260510104704 58 315 0.0 0.0 0.00 0.00 0.00 90 1013.4
20260510104204 58 315 0.0 0.0 0.00 0.00 0.00 90 1013.4
20260510103704 58 315 0.0 0.0 0.00 0.00 0.00 90 1013.3
20260510103204 58 315 0.0 0.0 0.00 0.00 0.00 90 1013.3
20260510102704 58 315 0.0 0.0 0.00 0.00 0.00 90 1013.1
20260510102204 58 315 0.0 0.0 0.00 0.00 0.00 90 1013.1
20260510101205 58 315 0.0 0.0 0.00 0.00 0.00 89 1013.0
20260510100705 58 315 0.0 0.0 0.00 0.00 0.00 89 1013.0
20260510100204 58 315 0.0 0.0 0.00 0.00 0.00 89 1012.7
20260510095704 58 315 0.0 0.0 0.00 0.00 0.00 89 1012.6
20260510094705 59 315 0.0 0.0 0.00 0.00 0.00 89 1012.5
20260510094204 59 315 0.0 0.0 0.00 0.00 0.00 89 1012.4
20260510093703 59 315 0.0 0.0 0.00 0.00 0.00 89 1012.4
20260510093204 59 315 0.0 0.0 0.00 0.00 0.00 89 1012.3
20260510092705 59 315 0.0 0.0 0.00 0.00 0.00 89 1012.3
20260510092204 59 315 0.0 0.0 0.00 0.00 0.00 89 1012.4
20260510091704 59 315 0.0 0.0 0.00 0.00 0.00 88 1012.4
20260510091204 59 315 0.0 0.0 0.00 0.00 0.00 88 1012.4
20260510090204 59 315 0.0 0.0 0.00 0.00 0.00 89 1012.3
20260510084704 60 315 0.0 0.0 0.00 0.00 0.00 88 1012.0
20260510084204 60 315 0.0 0.0 0.00 0.00 0.00 88 1012.0
20260510082704 60 315 0.0 0.0 0.00 0.00 0.00 88 1012.0
20260510082204 60 315 0.0 0.0 0.00 0.00 0.00 88 1012.1
20260510081704 61 315 0.0 0.0 0.00 0.00 0.00 87 1012.2
20260510081204 61 315 0.0 0.0 0.00 0.00 0.00 87 1012.0
20260510080704 61 315 0.0 0.0 0.00 0.00 0.00 87 1011.9
20260510080203 61 315 0.0 0.0 0.00 0.00 0.00 86 1012.0
20260510075704 61 315 0.0 0.0 0.00 0.00 0.00 86 1011.9
20260510075203 61 315 0.0 0.0 0.00 0.00 0.00 86 1011.9
20260510074704 61 315 0.0 0.0 0.00 0.00 0.00 86 1011.8
20260510074204 61 315 0.0 0.0 0.00 0.00 0.00 85 1011.7
20260510073204 62 315 0.0 0.0 0.00 0.00 0.00 85 1011.6
20260510072704 62 315 0.0 0.0 0.00 0.00 0.00 85 1011.6
20260510072203 62 315 0.0 0.0 0.00 0.00 0.00 84 1011.6
20260510071704 62 315 0.0 0.0 0.00 0.00 0.00 84 1011.7
20260510071203 62 315 0.0 0.0 0.00 0.00 0.00 84 1011.8
20260510070705 62 315 0.0 0.0 0.00 0.00 0.00 84 1011.9
20260510070204 63 315 0.0 0.0 0.00 0.00 0.00 84 1011.6
20260510065705 63 315 0.0 0.0 0.00 0.00 0.00 84 1011.6
20260510064703 63 315 0.0 0.0 0.00 0.00 0.00 83 1011.8
20260510064204 63 315 0.0 0.0 0.00 0.00 0.00 84 1011.7
20260510063204 63 315 0.0 0.0 0.00 0.00 0.00 83 1011.8
20260510062704 64 315 0.0 0.0 0.00 0.00 0.00 83 1011.8
20260510062204 64 315 0.0 0.0 0.00 0.00 0.00 82 1011.9
20260510061705 64 314 0.0 0.0 0.00 0.00 0.00 82 1011.9
20260510061204 64 314 0.0 0.0 0.00 0.00 0.00 82 1011.8
20260510060204 64 314 0.0 0.0 0.00 0.00 0.00 81 1011.9
20260510055703 65 314 0.0 0.0 0.00 0.00 0.00 81 1011.8
20260510055204 65 314 0.0 0.0 0.00 0.00 0.00 80 1011.8
20260510054705 65 314 0.0 0.0 0.00 0.00 0.00 80 1011.8
20260510054204 65 314 0.0 0.0 0.00 0.00 0.00 80 1011.8
20260510053703 65 314 0.0 0.0 0.00 0.00 0.00 80 1011.9
20260510053204 65 314 0.0 0.0 0.00 0.00 0.00 80 1011.9
20260510052704 65 314 0.0 0.0 0.00 0.00 0.00 80 1011.8
20260510052203 65 314 0.0 0.0 0.00 0.00 0.00 80 1011.8
20260510051705 65 314 0.0 0.0 0.00 0.00 0.00 80 1011.9
20260510050205 65 314 0.0 0.0 0.00 0.00 0.00 79 1011.9
20260510045704 65 314 0.0 0.0 0.00 0.00 0.00 79 1011.9
20260510045204 65 314 0.0 0.0 0.00 0.00 0.00 79 1011.8
20260510043704 65 314 0.0 0.0 0.00 0.00 0.00 78 1011.9
20260510043205 65 314 0.0 0.0 0.00 0.00 0.00 78 1011.8
20260510041203 65 314 0.0 0.0 0.00 0.00 0.00 77 1011.7
20260510040704 65 314 0.0 0.0 0.00 0.00 0.00 76 1011.8
20260510040205 65 314 0.0 0.0 0.00 0.00 0.00 76 1011.7
20260510035706 65 314 0.0 0.0 0.00 0.00 0.00 76 1011.6
20260510035206 65 314 0.0 0.0 0.00 0.00 0.00 76 1011.6
20260510034706 65 314 0.0 0.0 0.00 0.00 0.00 75 1011.7
20260510034206 65 314 0.0 0.0 0.00 0.00 0.00 75 1011.5
20260510033705 65 314 0.0 0.0 0.00 0.00 0.00 75 1011.5
20260510033206 66 314 0.0 0.0 0.00 0.00 0.00 74 1011.5
20260510032706 66 314 0.0 0.0 0.00 0.00 0.00 74 1011.6
20260510031706 66 314 0.0 0.0 0.00 0.00 0.00 73 1011.5
20260510031205 66 314 0.0 0.0 0.00 0.00 0.00 72 1011.4
20260510030706 66 314 0.0 0.0 0.00 0.00 0.00 72 1011.4
20260510030207 66 314 0.0 0.0 0.00 0.00 0.00 71 1011.4
20260510025705 66 314 0.0 0.0 0.00 0.00 0.00 71 1011.4
20260510025207 66 314 0.0 0.0 0.00 0.00 0.00 71 1011.3
20260510024705 66 314 0.0 0.0 0.00 0.00 0.00 71 1011.3
20260510024206 66 314 0.0 0.0 0.00 0.00 0.00 70 1011.2
20260510023707 67 314 0.0 0.0 0.00 0.00 0.00 70 1011.3
20260510023206 67 314 0.0 0.0 0.00 0.00 0.00 70 1011.3
20260510022705 67 314 0.0 0.0 0.00 0.00 0.00 69 1011.2
20260510022207 67 314 0.0 0.0 0.00 0.00 0.00 69 1011.2
20260510021706 67 314 0.0 0.0 0.00 0.00 0.00 69 1011.2
20260510021205 67 314 0.0 0.0 0.00 0.00 0.00 69 1011.0
20260510020705 67 314 0.0 0.0 0.00 0.00 0.00 68 1010.9
20260510020206 67 314 0.0 0.0 0.00 0.00 0.00 68 1010.8
20260510015706 68 314 0.0 0.0 0.00 0.00 0.00 68 1010.8
20260510015206 68 314 0.0 0.0 0.00 0.00 0.00 68 1010.6
20260510014705 68 314 0.0 0.0 0.00 0.00 0.00 68 1010.4
20260510013705 68 314 0.0 0.0 0.00 0.00 0.00 67 1010.3
20260510013205 68 314 0.0 0.0 0.00 0.00 0.00 67 1010.3
20260510012707 69 314 0.0 0.0 0.00 0.00 0.00 66 1010.2
20260510011707 69 314 0.0 0.0 0.00 0.00 0.00 66 1010.3
20260510010706 69 314 0.0 0.0 0.00 0.00 0.00 65 1010.0
20260510005706 70 314 0.0 0.0 0.00 0.00 0.00 64 1009.9
20260510005206 70 314 0.0 0.0 0.00 0.00 0.00 63 1010.0
20260510004706 70 314 0.0 0.0 0.00 0.00 0.00 63 1009.9
20260510004207 70 314 0.0 0.0 0.00 0.00 0.00 62 1009.9
20260510003705 70 314 0.0 0.0 0.00 0.00 0.00 62 1009.8
20260510003207 71 314 0.0 0.0 0.00 0.00 0.00 61 1009.8
20260510002205 71 314 0.0 0.0 0.00 0.00 0.00 60 1009.7
20260510001705 71 314 0.0 0.0 0.00 0.00 0.00 60 1009.6
20260510001205 72 314 0.0 0.0 0.00 0.00 0.00 59 1009.5
20260510000705 72 314 0.0 0.0 0.00 0.00 0.00 58 1009.4
20260509235205 73 314 0.0 0.0 0.00 0.00 0.00 57 1009.4
20260509234706 73 314 0.0 0.0 0.00 0.00 0.00 57 1009.3
20260509234205 73 314 0.0 0.0 0.00 0.00 0.00 57 1009.2
20260509233705 73 314 0.0 0.0 0.00 0.00 0.00 56 1009.1
20260509233206 74 314 0.0 0.0 0.00 0.00 0.00 57 1009.2
20260509232705 74 314 0.0 0.0 0.00 0.00 0.00 56 1009.2
20260509231705 74 314 0.0 0.0 0.00 0.00 0.00 55 1009.3
20260509230205 74 314 0.0 0.0 0.00 0.00 0.00 53 1009.3
20260509225705 75 314 0.0 1.0 0.00 0.00 0.00 54 1009.3
20260509225205 75 314 0.0 0.0 0.00 0.00 0.00 53 1009.3
20260509224705 75 314 2.0 7.0 0.00 0.00 0.00 51 1009.2
20260509224205 75 310 5.0 5.0 0.00 0.00 0.00 51 1009.2
20260509223706 75 306 2.0 5.0 0.00 0.00 0.00 51 1009.2
20260509223207 75 306 1.0 5.0 0.00 0.00 0.00 51 1009.1
20260509222205 75 306 0.0 0.0 0.00 0.00 0.00 50 1009.2
20260509221705 75 306 0.0 0.0 0.00 0.00 0.00 51 1009.1
20260509221205 75 306 0.0 3.0 0.00 0.00 0.00 50 1009.1
20260509220207 76 306 0.0 0.0 0.00 0.00 0.00 50 1009.1
20260509215705 76 306 0.0 0.0 0.00 0.00 0.00 52 1009.0
20260509215205 76 306 0.0 0.0 0.00 0.00 0.00 51 1009.0
20260509214706 76 306 0.0 3.0 0.00 0.00 0.00 50 1009.0
20260509214205 76 306 1.0 5.0 0.00 0.00 0.00 49 1008.9
20260509212705 75 307 1.0 7.0 0.00 0.00 0.00 51 1008.9
20260509212206 75 288 0.0 0.0 0.00 0.00 0.00 51 1008.9
20260509211704 75 288 0.0 5.0 0.00 0.00 0.00 53 1008.8
20260509211205 75 288 3.0 5.0 0.00 0.00 0.00 53 1008.7
20260509210706 75 288 3.0 5.0 0.00 0.00 0.00 52 1008.7
20260509205707 75 172 3.0 5.0 0.00 0.00 0.00 52 1008.8
20260509205205 74 288 3.0 7.0 0.00 0.00 0.00 53 1008.8
20260509204705 74 285 0.0 0.0 0.00 0.00 0.00 56 1008.8
20260509204205 74 285 0.0 0.0 0.00 0.00 0.00 54 1008.8
20260509203705 74 286 0.0 0.0 0.00 0.00 0.00 57 1008.7
20260509203205 74 286 0.0 0.0 0.00 0.00 0.00 58 1008.8
20260509202705 73 286 0.0 0.0 0.00 0.00 0.00 57 1008.9
20260509202206 73 273 0.0 0.0 0.00 0.00 0.00 60 1008.9
20260509200704 73 273 0.0 0.0 0.00 0.00 0.00 59 1009.2
20260509195705 73 273 0.0 0.0 0.00 0.00 0.00 57 1009.2
20260509195205 73 273 0.0 0.0 0.00 0.00 0.00 54 1009.3
20260509194205 73 182 0.0 5.0 0.00 0.00 0.00 55 1009.3
20260509193705 73 319 1.0 3.0 0.00 0.00 0.00 55 1009.4
20260509193205 73 305 0.0 3.0 0.00 0.00 0.00 54 1009.5
20260509192705 73 294 1.0 5.0 0.00 0.00 0.00 55 1009.5
20260509192205 73 294 0.0 3.0 0.00 0.00 0.00 56 1009.6
20260509191205 73 294 1.0 5.0 0.00 0.00 0.00 53 1009.6
20260509190706 73 294 0.0 0.0 0.00 0.00 0.00 54 1009.7
20260509190205 73 294 0.0 0.0 0.00 0.00 0.00 53 1009.7
20260509185705 73 294 0.0 0.0 0.00 0.00 0.00 54 1009.8
20260509185205 73 294 0.0 0.0 0.00 0.00 0.00 52 1009.9
20260509184705 73 294 0.0 5.0 0.00 0.00 0.00 50 1010.0
20260509184205 73 294 5.0 7.0 0.00 0.00 0.00 51 1010.1
20260509183204 74 294 1.0 5.0 0.00 0.00 0.00 52 1010.1
20260509182704 74 293 4.0 8.0 0.00 0.00 0.00 49 1010.1
20260509182206 74 288 3.0 8.0 0.00 0.00 0.00 50 1010.2
20260509181705 74 296 1.0 5.0 0.00 0.00 0.00 49 1010.2
20260509181204 74 296 0.0 0.0 0.00 0.00 0.00 52 1010.3
20260509180704 74 296 0.0 0.0 0.00 0.00 0.00 51 1010.4
20260509180205 74 296 0.0 3.0 0.00 0.00 0.00 52 1010.6